Zurück zum Katalog

YINHE-1

AktivKommunikationPO
NORAD 45024·PAYLOAD·🇨🇳 China

Gestartet Jan 16, 2020 von Jiuquan Satellite Launch Center

Loading…

Nächste Überflüge (nächste 24 Stunden)

TLE

AktuellSource: Space-Track

Epoche: Sep 14, 2026, 21:46 UTC

1 45024U 20004A   26257.90712703  .00000270  00000-0  32675-4 0  9998
2 45024  86.3874  75.1788 0015468  51.8860 308.3753 14.79215574359181

Verfolge YINHE-1 in Echtzeit mit AllMySat

Download on the App Store